This is the latest recevied weather packets stored in our database for station/object K6CED. If no packets are shown the sender has not sent any weather packets the latest 10 day(s).
| Time | Temp. | Humidity | Pressure | Rain* | Wind** | Luminosity | Snow |
|---|---|---|---|---|---|---|---|
| 1788056550 | 29.44° C | 51% | 1013 hPa | 0 mm | - | 2 W/m² | - |
| 1788056244 | 29.44° C | 51% | 1013.2 hPa | 0 mm | - | 4 W/m² | - |
| 1788055940 | 30° C | 51% | 1013.2 hPa | 0 mm | - | 7 W/m² | - |
| 1788055639 | 30° C | 50% | 1013.3 hPa | 0 mm | - | 10 W/m² | - |
| 1788055334 | 30° C | 50% | 1013.2 hPa | 0 mm | - | 14 W/m² | - |
| 1788055034 | 30.56° C | 49% | 1013.4 hPa | 0 mm | - | 18 W/m² | - |
| 1788054729 | 30.56° C | 49% | 1013.2 hPa | 0 mm | - | 21 W/m² | - |
| 1788054425 | 30.56° C | 49% | 1013.3 hPa | 0 mm | - | 24 W/m² | - |
| 1788054120 | 30.56° C | 50% | 1013.3 hPa | 0 mm | - | 27 W/m² | - |
| 1788053815 | 31.67° C | 48% | 1013.1 hPa | 0 mm | - | 35 W/m² | - |
| 1788053511 | 32.22° C | 47% | 1013 hPa | 0 mm | - | 40 W/m² | - |
| 1788053211 | 32.22° C | 47% | 1013.2 hPa | 0 mm | - | 48 W/m² | - |
| 1788052908 | 32.22° C | 48% | 1013.1 hPa | 0 mm | - | 55 W/m² | - |
| 1788052608 | 32.78° C | 47% | 1013.2 hPa | 0 mm | - | 61 W/m² | - |
| 1788052303 | 32.78° C | 47% | 1013.1 hPa | 0 mm | - | 72 W/m² | - |
| 1788051999 | 33.33° C | 45% | 1012.9 hPa | 0 mm | - | 83 W/m² | - |
| 1788051693 | 33.33° C | 44% | 1013 hPa | 0 mm | - | 94 W/m² | - |
| 1788051392 | 33.89° C | 43% | 1013.1 hPa | 0 mm | - | 104 W/m² | - |
| 1788051091 | 33.33° C | 43% | 1013.1 hPa | 0 mm | - | 108 W/m² | - |
| 1788050791 | 33.33° C | 42% | 1013.1 hPa | 0 mm | - | 130 W/m² | - |
| 1788050486 | 33.89° C | 42% | 1013 hPa | 0 mm | - | 147 W/m² | - |
| 1788050181 | 33.89° C | 41% | 1013 hPa | 0 mm | - | 163 W/m² | - |
| 1788049875 | 34.44° C | 40% | 1012.9 hPa | 0 mm | - | 183 W/m² | - |
| 1788049573 | 34.44° C | 39% | 1012.8 hPa | 0 mm | - | 201 W/m² | - |
| 1788049264 | 34.44° C | 39% | 1013 hPa | 0 mm | - | 212 W/m² | - |
* Rain latest hour (hover to see other rain measurements)
** Current wind speed in m/s (hover to see current wind gust speed)